#timestamp,LO_Frequency,Hit,StdDev 
1710183615.3,286047007.2,Y
1710183635.1,286047002.4,P
1710183655.9,286047003.7,P
1710183675.7,286047004.1,P
1710183695.6,286047004.2,Y
1710183715.4,286046999.9,P
1710183735.2,286046999.0,N
1710183755.1,286046998.5,N
1710183756.0,286046998.5,N
1710183775.8,286047002.7,N
1710183795.6,286046998.4,N
1710183815.5,286047002.2,N
1710183835.3,286047001.7,N
1710183855.2,286047001.4,N
1710183875.9,286047002.6,N
1710183895.8,286047005.2,N
1710183915.6,286047004.3,N
1710183935.4,286047001.4,N
1710183955.3,286047001.6,N
1710183975.1,286047001.7,N
1710183995.8,286047004.4,N
1710184015.7,286047003.4,N
1710184035.5,286047003.4,N
1710184055.4,286047005.6,N
1710184075.2,286047003.5,N
1710184095.0,286047007.6,Y
1710184095.9,286047007.6,P
1710184115.8,286047001.9,N
1710184135.6,286047001.5,N
1710184155.4,286047001.4,N
1710184175.3,286047003.0,N
1710184195.1,286047003.0,N
1710184215.9,286047002.9,N
1710184235.7,286047004.3,N
1710184255.5,286047005.1,N
1710184275.4,286047004.8,N
1710184295.2,286047008.0,Y
1710184315.0,286047006.3,P
1710184316.0,286047006.3,P
1710184335.8,286047009.1,P
1710184355.6,286047007.7,Y
1710184375.5,286047003.3,P
1710184395.3,286047003.1,N
1710184415.1,286047001.8,N
1710184435.9,286047005.9,Y
1710184455.7,286047001.4,P
1710184475.6,286047002.6,N
1710184495.4,286047002.2,N
1710184515.2,286047000.3,N
1710184535.1,286046996.5,Y
1710184536.0,286046996.5,P
1710184555.8,286046997.8,N
1710184575.6,286046994.9,N
1710184595.5,286046998.8,N
1710184615.3,286046999.6,N
1710184635.2,286046997.1,N
1710184655.9,286046997.5,N
1710184675.7,286046997.5,N
1710184695.6,286046997.1,N
1710184715.4,286047001.1,N
1710184735.2,286046999.8,N
1710184755.1,286047001.6,N
1710184756.0,286047001.6,N
1710184775.8,286047004.0,N
1710184795.7,286047003.1,N
1710184815.5,286047003.5,N
1710184835.3,286047003.6,N
1710184855.2,286047004.7,N
1710184875.0,286047005.4,N
1710184875.9,286047005.4,N
1710184895.7,286047003.0,N
1710184915.6,286047003.9,N
1710184935.4,286047006.5,N
1710184955.3,286047010.4,Y
1710184975.1,286047006.4,P
1710184995.8,286047005.0,N
1710185015.7,286047006.4,N
1710185035.5,286047007.7,Y
1710185055.4,286047004.8,P
1710185075.2,286047003.9,P
1710185095.0,286047005.9,P
1710185095.9,286047005.9,Y
1710185115.8,286046998.3,P
1710185135.6,286047001.0,N
1710185185.5,286047004.4,E
1710185195.4,286047002.3,N
1710185215.2,286046998.5,P
1710185235.1,286047001.2,N
1710185236.0,286047001.2,N
1710185255.8,286047004.8,Y
1710185275.7,286047003.5,P
1710185295.5,286047004.4,P
1710185315.3,286047001.7,N
1710185335.2,286047005.8,Y
1710185355.0,286047002.2,P
1710185355.9,286047002.2,P
1710185375.8,286047000.1,N
1710185395.6,286046998.4,N
1710185415.4,286046998.1,N
1710185435.3,286046998.6,N
1710185455.1,286047002.8,N
1710185475.9,286047004.0,N
1710185495.7,286047006.8,Y
1710185515.5,286047003.4,P
1710185535.4,286047001.6,N
1710185555.2,286047001.3,N
1710185575.0,286047003.4,Y
1710185576.0,286047003.4,P
1710185595.8,286047001.9,N
1710185615.6,286047005.4,P
1710185635.5,286047003.7,N
1710185655.3,286047005.6,Y
1710185675.1,286047005.1,P
1710185695.9,286047003.5,P
1710185715.7,286047001.4,N
1710185735.6,286047001.8,N
1710185755.4,286047001.6,N
1710185775.2,286047000.2,N
1710185795.1,286047002.4,N
1710185796.0,286047002.4,N
1710185815.8,286047000.3,N
1710185835.7,286046998.1,N
1710185855.5,286047001.4,N
1710185875.3,286047007.5,Y
1710185895.2,286047002.4,P
1710185915.0,286047000.5,N
1710185915.9,286047000.5,N
1710185935.7,286046998.1,N
1710185955.6,286047002.1,N
1710185975.4,286047001.7,N
1710185995.3,286047004.3,Y
1710186015.1,286047005.9,P
1710186035.8,286047004.1,N
1710186055.7,286047003.7,N
1710186075.5,286047004.6,N
1710186095.4,286047007.5,Y
1710186115.2,286047000.1,P
1710186135.0,286047000.2,N
1710186135.9,286047000.2,N
1710186155.8,286047001.8,N
1710186175.6,286047000.4,N
1710186195.5,286047000.7,N
1710186215.3,286047000.8,N
1710186235.1,286046996.7,N
1710186255.9,286047004.4,N
1710186275.7,286047005.3,N
1710186295.5,286047002.8,N
1710186315.4,286047002.8,N
1710186335.2,286047002.0,N
1710186355.1,286047004.2,N
1710186356.0,286047004.2,N
1710186375.8,286047000.0,N
1710186395.6,286046999.7,N
1710186415.5,286047003.5,N
1710186435.3,286047003.7,N
1710186455.2,286047004.0,N
1710186505.9,286047003.1,E
1710186515.8,286047002.0,N
1710186535.7,286047001.2,P
1710186555.5,286046998.7,P
1710186575.4,286047001.7,N
1710186595.2,286047002.1,N
1710186615.0,286047000.2,N
1710186615.9,286047000.2,N
1710186635.8,286047001.8,N
1710186655.6,286047002.3,N
1710186675.5,286047002.5,N
1710186695.3,286047002.2,N
1710186715.1,286047002.3,N
1710186735.9,286047002.4,N
1710186785.7,286047007.0,E
1710186795.7,286047003.0,N
1710186815.5,286047002.7,P
1710186835.3,286047001.9,P
1710186855.2,286046999.9,N
1710186875.0,286046999.8,N
1710186875.9,286046999.8,N
1710186895.7,286047001.7,N
1710186915.6,286047004.4,Y
1710186935.4,286047003.2,P
1710186955.3,286047003.5,P
1710186975.1,286047005.3,P
1710186995.8,286047006.7,Y
1710187015.7,286047003.2,P
1710187035.5,286047005.3,P
1710187055.4,286047005.2,P
1710187075.2,286047005.9,Y
1710187095.0,286047003.3,P
1710187095.9,286047003.3,P
1710187115.8,286047007.3,P
1710187135.6,286047004.9,N
1710187155.5,286047005.7,Y
1710187175.3,286047000.0,P
1710187195.1,286047002.1,N
